When you browse on this site, cookies collect data to enhance your experience and personalize the content and advertising you see.
Visit our Privacy Policy to learn more. By continuing to use the site, you agree to this use of cookies and data.
  • în România
  • Lista ţărilor
  • Pe 7 zile
  • Temperatura apei
  • Meteo pe hartă
  • Widget-uri
  • user-avatar
    Intrare

    Meteo pe oră la Tafilah

    Astăzi, 27 Februarie, Joi

    Timp Temperatura Precipitaţii Vânt Presiune Umiditate
    00:00 +11°C° 0 mm 1 m/s 702 mmHg 65%
    01:00 +11°C° 0 mm 1 m/s 702 mmHg 64%
    02:00 +11°C° 0 mm 1 m/s 702 mmHg 64%
    03:00 +10°C° 0 mm 2 m/s 702 mmHg 65%
    04:00 +9°C° 0 mm 2 m/s 702 mmHg 65%
    05:00 +9°C° 0 mm 2 m/s 702 mmHg 66%
    06:00 +10°C° 0 mm 2 m/s 702 mmHg 63%
    07:00 +12°C° 0 mm 2 m/s 702 mmHg 60%
    08:00 +12°C° 0 mm 3 m/s 703 mmHg 58%
    09:00 +13°C° 0 mm 3 m/s 703 mmHg 53%
    10:00 +16°C° 0 mm 3 m/s 703 mmHg 48%
    11:00 +17°C° 0 mm 3 m/s 703 mmHg 43%
    12:00 +17°C° 0 mm 3 m/s 702 mmHg 42%
    13:00 +18°C° 0 mm 2 m/s 702 mmHg 41%
    14:00 +18°C° 0 mm 2 m/s 701 mmHg 40%
    15:00 +18°C° 0 mm 2 m/s 701 mmHg 41%
    16:00 +18°C° 0 mm 2 m/s 701 mmHg 42%
    17:00 +18°C° 0 mm 1 m/s 701 mmHg 43%
    18:00 +16°C° 0 mm 1 m/s 701 mmHg 44%
    19:00 +16°C° 0 mm 1 m/s 700 mmHg 46%
    20:00 +14°C° 0 mm 0 m/s 700 mmHg 48%
    21:00 +13°C° 0 mm 0 m/s 700 mmHg 48%
    22:00 +13°C° 0 mm 0 m/s 700 mmHg 48%
    23:00 +13°C° 0 mm 0 m/s 700 mmHg 47%

    Mâine, 28 Februarie, Vineri

    Timp Temperatura Precipitaţii Vânt Presiune Umiditate
    00:00 +12°C° 0 mm 0 m/s 700 mmHg 48%
    01:00 +12°C° 0 mm 0 m/s 699 mmHg 48%
    02:00 +12°C° 0 mm 0 m/s 699 mmHg 48%
    03:00 +12°C° 0 mm 0 m/s 699 mmHg 48%
    04:00 +12°C° 0 mm 0 m/s 699 mmHg 47%
    05:00 +12°C° 0 mm 0 m/s 699 mmHg 46%
    06:00 +13°C° 0 mm 0 m/s 699 mmHg 43%
    07:00 +14°C° 0 mm 0 m/s 699 mmHg 39%
    08:00 +15°C° 0 mm 0 m/s 700 mmHg 36%
    09:00 +18°C° 0 mm 1 m/s 700 mmHg 34%
    10:00 +19°C° 0 mm 1 m/s 700 mmHg 32%
    11:00 +20°C° 0 mm 1 m/s 700 mmHg 31%
    12:00 +19°C° 0 mm 2 m/s 699 mmHg 30%
    13:00 +20°C° 0 mm 2 m/s 699 mmHg 29%
    14:00 +20°C° 0 mm 3 m/s 698 mmHg 29%
    15:00 +20°C° 0 mm 3 m/s 698 mmHg 30%
    16:00 +19°C° 0 mm 3 m/s 698 mmHg 32%
    17:00 +19°C° 0 mm 3 m/s 698 mmHg 33%
    18:00 +18°C° 0 mm 2 m/s 698 mmHg 38%
    19:00 +17°C° 0 mm 2 m/s 698 mmHg 43%
    20:00 +16°C° 0 mm 1 m/s 698 mmHg 48%
    21:00 +15°C° 0 mm 1 m/s 698 mmHg 49%
    22:00 +15°C° 0 mm 1 m/s 698 mmHg 50%
    23:00 +15°C° 0 mm 1 m/s 698 mmHg 52%

    Poimâine, 29 Februarie, Sâmbătă

    Timp Temperatura Precipitaţii Vânt Presiune Umiditate
    00:00 +14°C° 0 mm 1 m/s 698 mmHg 52%
    01:00 +14°C° 0 mm 1 m/s 697 mmHg 53%
    02:00 +14°C° 0 mm 1 m/s 697 mmHg 53%
    03:00 +13°C° 0 mm 2 m/s 697 mmHg 58%
    04:00 +11°C° 0 mm 3 m/s 697 mmHg 63%
    05:00 +11°C° 0 mm 4 m/s 697 mmHg 67%
    06:00 +11°C° 0.1 mm 4 m/s 697 mmHg 73%
    07:00 +11°C° 0.1 mm 4 m/s 698 mmHg 78%
    08:00 +11°C° 0.1 mm 4 m/s 698 mmHg 83%
    09:00 +11°C° 0.1 mm 4 m/s 698 mmHg 79%
    10:00 +12°C° 0.1 mm 4 m/s 698 mmHg 75%
    11:00 +12°C° 0.1 mm 5 m/s 698 mmHg 71%
    12:00 +12°C° 0 mm 5 m/s 698 mmHg 65%
    13:00 +13°C° 0 mm 5 m/s 697 mmHg 60%
    14:00 +13°C° 0 mm 5 m/s 697 mmHg 54%
    15:00 +13°C° 0 mm 5 m/s 697 mmHg 55%
    16:00 +13°C° 0 mm 6 m/s 697 mmHg 56%
    17:00 +11°C° 0 mm 6 m/s 698 mmHg 57%
    18:00 +11°C° 0 mm 6 m/s 698 mmHg 62%
    19:00 +10°C° 0 mm 5 m/s 698 mmHg 67%
    20:00 +9°C° 0 mm 5 m/s 698 mmHg 72%
    21:00 +9°C° 0 mm 6 m/s 698 mmHg 70%
    22:00 +9°C° 0 mm 7 m/s 698 mmHg 67%
    23:00 +10°C° 0 mm 8 m/s 698 mmHg 65%

    1 Martie, Duminică

    Timp Temperatura Precipitaţii Vânt Presiune Umiditate
    00:00 +9°C° 0.1 mm 8 m/s 698 mmHg 70%
    01:00 +8°C° 0.1 mm 9 m/s 698 mmHg 74%
    02:00 +8°C° 0.1 mm 9 m/s 698 mmHg 79%
    03:00 +7°C° 0.1 mm 9 m/s 698 mmHg 79%
    04:00 +6°C° 0.1 mm 8 m/s 698 mmHg 78%
    05:00 +6°C° 0.1 mm 8 m/s 698 mmHg 78%
    06:00 +6°C° 0 mm 7 m/s 699 mmHg 75%
    07:00 +6°C° 0 mm 7 m/s 699 mmHg 71%
    08:00 +7°C° 0 mm 6 m/s 700 mmHg 68%
    09:00 +8°C° 0 mm 6 m/s 700 mmHg 64%
    10:00 +8°C° 0 mm 5 m/s 700 mmHg 60%
    11:00 +9°C° 0 mm 5 m/s 700 mmHg 57%
    12:00 +10°C° 0 mm 5 m/s 700 mmHg 54%
    13:00 +10°C° 0 mm 5 m/s 700 mmHg 52%
    14:00 +12°C° 0 mm 4 m/s 700 mmHg 49%
    15:00 +12°C° 0 mm 4 m/s 700 mmHg 51%
    16:00 +11°C° 0 mm 4 m/s 700 mmHg 52%
    17:00 +11°C° 0 mm 3 m/s 700 mmHg 54%
    18:00 +10°C° 0 mm 3 m/s 700 mmHg 59%
    19:00 +10°C° 0 mm 3 m/s 700 mmHg 65%
    20:00 +9°C° 0 mm 3 m/s 701 mmHg 71%
    21:00 +9°C° 0 mm 2 m/s 701 mmHg 72%
    22:00 +8°C° 0 mm 2 m/s 701 mmHg 73%
    23:00 +9°C° 0 mm 1 m/s 701 mmHg 75%

    2 Martie, Luni

    Timp Temperatura Precipitaţii Vânt Presiune Umiditate
    00:00 +9°C° 0 mm 1 m/s 701 mmHg 72%
    01:00 +8°C° 0 mm 1 m/s 700 mmHg 70%
    02:00 +8°C° 0 mm 1 m/s 700 mmHg 67%
    03:00 +8°C° 0 mm 1 m/s 700 mmHg 65%
    04:00 +8°C° 0 mm 1 m/s 700 mmHg 63%
    05:00 +6°C° 0 mm 0 m/s 700 mmHg 61%
    06:00 +7°C° 0 mm 0 m/s 700 mmHg 55%
    07:00 +8°C° 0 mm 0 m/s 701 mmHg 49%
    08:00 +10°C° 0 mm 1 m/s 702 mmHg 43%
    09:00 +12°C° 0 mm 1 m/s 702 mmHg 40%
    10:00 +13°C° 0 mm 1 m/s 702 mmHg 38%
    11:00 +14°C° 0 mm 1 m/s 701 mmHg 35%
    12:00 +15°C° 0 mm 2 m/s 701 mmHg 35%
    13:00 +15°C° 0 mm 2 m/s 701 mmHg 34%
    14:00 +16°C° 0 mm 2 m/s 700 mmHg 33%
    15:00 +16°C° 0 mm 2 m/s 700 mmHg 34%
    16:00 +16°C° 0 mm 2 m/s 700 mmHg 36%
    17:00 +15°C° 0 mm 2 m/s 700 mmHg 37%
    18:00 +15°C° 0 mm 2 m/s 700 mmHg 40%
    19:00 +14°C° 0 mm 1 m/s 701 mmHg 44%
    20:00 +13°C° 0 mm 1 m/s 701 mmHg 47%
    21:00 +12°C° 0 mm 1 m/s 701 mmHg 48%
    22:00 +12°C° 0 mm 1 m/s 701 mmHg 49%
    23:00 +12°C° 0 mm 1 m/s 701 mmHg 49%

    3 Martie, Marţi

    Timp Temperatura Precipitaţii Vânt Presiune Umiditate
    00:00 +11°C° 0 mm 1 m/s 701 mmHg 50%
    01:00 +11°C° 0 mm 1 m/s 701 mmHg 50%
    02:00 +10°C° 0 mm 2 m/s 701 mmHg 50%
    03:00 +10°C° 0 mm 2 m/s 701 mmHg 51%
    04:00 +9°C° 0 mm 2 m/s 700 mmHg 52%
    05:00 +9°C° 0 mm 2 m/s 700 mmHg 53%
    06:00 +10°C° 0 mm 2 m/s 701 mmHg 49%
    07:00 +12°C° 0 mm 2 m/s 701 mmHg 45%
    08:00 +12°C° 0 mm 3 m/s 702 mmHg 41%
    09:00 +14°C° 0 mm 3 m/s 702 mmHg 37%
    10:00 +15°C° 0 mm 4 m/s 702 mmHg 33%
    11:00 +18°C° 0 mm 4 m/s 702 mmHg 30%
    12:00 +19°C° 0 mm 4 m/s 701 mmHg 28%
    13:00 +20°C° 0 mm 4 m/s 701 mmHg 27%
    14:00 +20°C° 0 mm 3 m/s 700 mmHg 25%
    15:00 +20°C° 0 mm 3 m/s 700 mmHg 26%
    16:00 +20°C° 0 mm 2 m/s 700 mmHg 27%
    17:00 +20°C° 0 mm 2 m/s 700 mmHg 27%
    18:00 +19°C° 0 mm 2 m/s 700 mmHg 28%
    19:00 +18°C° 0 mm 2 m/s 700 mmHg 29%
    20:00 +17°C° 0 mm 2 m/s 700 mmHg 29%
    21:00 +17°C° 0 mm 2 m/s 700 mmHg 29%
    22:00 +16°C° 0 mm 2 m/s 700 mmHg 30%
    23:00 +14°C° 0 mm 3 m/s 699 mmHg 30%
    Arată mai mult